Location: Unspecified
(45.3999°N, 88.1269°W)
Time: 05:02:19
(UTC-06:00)

ISS - Visible Passes

Search period start: 18 December 2017 00:00
Search period end: 28 December 2017 00:00
Orbit: 402 x 406 km, 51.6° (Epoch: 18 December)

Date Brightness Start Highest point End Pass type
(mag) Time Alt. Az. Time Alt. Az. Time Alt. Az.
19 Dec -0.4 16:50:43 10° W 16:52:32 14° SW 16:54:21 10° SSW visible
25 Dec -0.8 06:46:09 10° S 06:48:42 21° SE 06:51:16 10° E visible
26 Dec -0.5 05:55:13 10° SSE 05:56:35 12° SE 05:57:55 10° ESE visible
27 Dec -2.6 06:37:06 10° SW 06:40:14 45° SE 06:43:24 10° ENE visible
